PE1NIB-13 Weather Reports


time (UTC)temp
C
wind
direction
speed
KPH
gust
KPH
rain 1hr
cm
rain 24hr
cm
rain mn
cm
humidity
%
barometer
mb
20260506023603 8 302 3.2 9.7 0.00 0.00 0.00 88 1007.7
20260506022918 8 296 4.8 12.9 0.00 0.00 0.00 88 1007.5
20260506022020 8 305 3.2 12.9 0.00 0.00 0.00 88 1007.4
20260506021118 8 298 3.2 9.7 0.00 0.00 0.00 87 1007.6
20260506020003 8 307 3.2 12.9 0.00 0.00 0.00 87 1007.7
20260506015403 8 307 4.8 12.9 0.00 0.00 0.00 87 1007.7
20260506014504 8 296 4.8 12.9 0.00 0.03 0.00 86 1007.6
20260506013821 8 295 4.8 14.5 0.00 0.03 0.00 86 1007.8
20260506012919 8 302 3.2 11.3 0.00 0.03 0.00 85 1007.8
20260506011804 9 300 4.8 11.3 0.00 0.05 0.00 85 1007.9
20260506010903 9 302 3.2 11.3 0.00 0.05 0.00 84 1007.9
20260506010008 9 287 3.2 11.3 0.00 0.08 0.00 83 1007.9
20260506005617 9 292 3.2 11.3 0.00 0.08 0.00 83 1007.9
20260506004720 9 286 3.2 11.3 0.00 0.08 0.00 83 1008.2
20260506003817 9 301 4.8 11.3 0.00 0.08 0.00 82 1008.1
20260506002919 9 298 3.2 6.4 0.00 0.08 0.00 82 1008.0
20260506002017 10 300 3.2 11.3 0.00 0.08 0.00 81 1008.1
20260506001119 10 298 3.2 11.3 0.00 0.08 0.00 82 1008.3
20260506000221 10 308 3.2 14.5 0.00 0.10 0.00 81 1008.2
20260505235403 10 309 3.2 11.3 0.00 0.10 0.00 81 1008.3
20260505234504 10 300 3.2 12.9 0.00 0.13 0.00 81 1008.4
20260505233603 10 304 3.2 11.3 0.00 0.13 0.00 81 1008.4
20260505232920 10 306 3.2 6.4 0.00 0.15 0.00 81 1008.4
20260505231803 10 287 3.2 11.3 0.00 0.20 0.00 80 1008.8
20260505230903 10 292 3.2 11.3 0.00 0.25 0.00 80 1008.7
20260505230003 10 285 3.2 11.3 0.00 0.28 0.00 80 1008.7
20260505225403 10 296 4.8 11.3 0.00 0.30 0.00 79 1008.5
20260505224721 10 303 4.8 11.3 0.00 0.41 0.00 79 1008.6
20260505223603 10 301 4.8 12.9 0.00 0.81 0.00 79 1008.9
20260505222708 10 309 3.2 11.3 0.00 0.89 0.00 79 1009.0
20260505221803 10 309 3.2 12.9 0.00 0.89 0.00 79 1008.7
20260505220904 10 296 3.2 12.9 0.00 0.89 0.00 79 1008.9
20260505220218 10 295 4.8 12.9 0.00 0.91 0.00 79 1009.0
20260505215619 10 300 4.8 12.9 0.00 0.91 0.91 79 1008.8
20260505214716 10 301 4.8 11.3 0.00 0.91 0.91 79 1009.0
20260505213604 10 306 3.2 9.7 0.00 0.91 0.91 79 1009.3
20260505212703 10 287 3.2 11.3 0.00 0.91 0.91 79 1009.1
20260505212019 10 289 3.2 11.3 0.00 0.91 0.91 79 1009.2
20260505211121 10 291 3.2 4.8 0.00 0.91 0.91 80 1009.1
20260505210003 10 306 3.2 4.8 0.00 0.91 0.91 80 1009.0
20260505205403 10 315 4.8 9.7 0.00 0.91 0.91 79 1009.3
20260505204503 10 271 4.8 11.3 0.00 0.91 0.91 80 1009.4
20260505203603 10 301 4.8 9.7 0.00 0.91 0.91 80 1009.5
20260505202704 10 294 3.2 6.4 0.00 0.91 0.91 80 1009.4
20260505201804 11 302 4.8 9.7 0.00 0.91 0.91 79 1009.4
20260505201122 11 287 3.2 11.3 0.00 0.91 0.91 79 1009.3
20260505200219 11 268 3.2 6.4 0.00 0.91 0.91 80 1009.3
20260505195620 11 311 3.2 12.9 0.00 0.91 0.91 80 1009.4
20260505194718 11 300 4.8 12.9 0.00 0.91 0.91 79 1009.2
20260505193820 11 290 3.2 9.7 0.00 0.91 0.91 80 1009.2
20260505192918 11 289 3.2 6.4 0.00 0.91 0.91 80 1009.1
20260505192020 11 281 1.6 4.8 0.00 0.91 0.91 79 1009.1
20260505190903 11 290 3.2 12.9 0.00 0.91 0.91 80 1008.9
20260505190004 11 278 1.6 6.4 0.00 0.91 0.91 80 1008.9
20260505185403 11 310 3.2 6.4 0.00 0.91 0.91 79 1008.9
20260505184503 11 289 3.2 11.3 0.00 0.91 0.91 79 1008.9
20260505183604 11 292 3.2 12.9 0.00 0.91 0.91 79 1008.9
20260505182918 11 274 4.8 12.9 0.00 0.91 0.91 79 1008.8
20260505182020 11 272 3.2 14.5 0.00 0.91 0.91 78 1008.9
20260505181118 11 296 3.2 14.5 0.00 0.91 0.91 78 1008.7
20260505180003 11 285 3.2 9.7 0.00 0.91 0.91 77 1008.8
20260505175404 11 277 3.2 6.4 0.00 0.91 0.91 77 1008.8
20260505174503 11 295 1.6 4.8 0.00 0.91 0.91 77 1008.8
20260505173603 11 298 3.2 6.4 0.00 0.91 0.91 77 1008.9
20260505172703 12 272 3.2 6.4 0.00 0.91 0.91 76 1008.9
20260505171804 12 262 3.2 11.3 0.00 0.91 0.91 76 1008.9
20260505170903 12 273 1.6 11.3 0.00 0.91 0.91 77 1009.0
20260505170003 12 273 4.8 11.3 0.00 0.91 0.91 76 1008.9
20260505165403 12 266 3.2 9.7 0.00 0.91 0.91 75 1008.9
20260505164503 12 295 4.8 9.7 0.00 0.91 0.91 76 1009.0
20260505163817 12 281 3.2 9.7 0.00 0.91 0.91 76 1009.0
20260505162919 12 305 3.2 12.9 0.00 0.91 0.91 77 1008.8
20260505161803 11 295 4.8 11.3 0.00 0.91 0.91 76 1009.3
20260505160903 12 282 3.2 9.7 0.00 0.91 0.91 77 1009.0
20260505160221 12 301 3.2 9.7 0.00 0.91 0.91 77 1009.2
20260505152920 12 275 3.2 6.4 0.00 0.91 0.91 77 1009.5
20260505152017 12 282 3.2 6.4 0.00 0.91 0.91 77 1009.4
20260505151120 12 286 3.2 6.4 0.00 0.91 0.91 77 1009.4
20260505150217 12 286 1.6 6.4 0.00 0.91 0.91 78 1009.7
20260505124504 12 306 3.2 9.7 0.00 0.91 0.91 79 1010.2
20260505123603 11 284 3.2 11.3 0.00 0.91 0.91 80 1010.3
20260505122704 11 288 3.2 6.4 0.00 0.91 0.91 79 1010.4
20260505122019 11 305 3.2 6.4 0.00 0.91 0.91 79 1010.4
20260505121116 11 298 1.6 9.7 0.00 0.91 0.91 81 1010.4
20260505120004 11 294 3.2 6.4 0.00 0.91 0.91 82 1010.4
20260505115403 11 240 3.2 4.8 0.00 0.91 0.91 81 1010.5
20260505114503 11 246 1.6 3.2 0.00 0.91 0.91 82 1010.6
20260505113603 11 159 1.6 6.4 0.00 0.91 0.91 81 1010.5
20260505112917 11 318 1.6 6.4 0.00 0.91 0.91 81 1010.7
20260505112020 11 309 3.2 6.4 0.00 0.91 0.91 81 1010.7
20260505111117 11 303 3.2 11.3 0.00 0.91 0.91 82 1010.7
20260505110220 11 286 3.2 6.4 0.00 0.91 0.91 82 1010.6
20260505102020 11 214 3.2 6.4 0.00 0.91 0.91 84 1010.7
20260505101118 10 224 3.2 6.4 0.00 0.91 0.91 83 1010.8
20260505100220 10 102 3.2 9.7 0.00 0.91 0.91 84 1011.1
20260505095403 10 134 3.2 11.3 0.00 0.91 0.91 83 1010.9
20260505094719 10 292 3.2 11.3 0.00 0.91 0.91 84 1011.0
20260505093604 10 143 3.2 11.3 0.00 0.91 0.91 85 1011.0
20260505092703 10 255 3.2 6.4 0.00 0.91 0.91 85 1011.1
20260505092021 10 247 3.2 6.4 0.00 0.91 0.91 86 1010.9
20260505091118 10 229 3.2 6.4 0.00 0.91 0.91 86 1010.9
20260505090003 10 304 1.6 6.4 0.00 0.91 0.91 86 1011.2
20260505085403 10 139 3.2 6.4 0.00 0.91 0.91 87 1011.0
20260505084503 10 255 1.6 3.2 0.00 0.91 0.91 87 1011.0
20260505083817 10 221 1.6 3.2 0.00 0.91 0.91 87 1011.0
20260505082919 10 172 3.2 6.4 0.00 0.91 0.91 87 1011.0
20260505081803 10 256 3.2 9.7 0.00 0.91 0.91 87 1011.0
20260505081119 10 306 3.2 9.7 0.00 0.91 0.91 87 1011.1
20260505080003 10 288 1.6 11.3 0.00 0.91 0.91 87 1011.1
20260505075403 10 283 1.6 11.3 0.00 0.91 0.91 87 1010.8
20260505074503 10 233 1.6 4.8 0.00 0.91 0.91 88 1010.9
20260505073604 9 183 3.2 11.3 0.00 0.91 0.91 88 1010.9
20260505072703 9 323 3.2 9.7 0.00 0.91 0.91 88 1010.8
20260505071803 9 29 1.6 3.2 0.00 0.91 0.91 88 1010.8
20260505070903 9 259 3.2 9.7 0.00 0.91 0.91 89 1010.9
20260505070217 9 253 3.2 9.7 0.00 0.91 0.91 88 1011.1
20260505065619 9 315 3.2 6.4 0.00 0.91 0.91 88 1011.2
20260505064503 9 265 1.6 6.4 0.00 0.91 0.91 88 1011.3
20260505063603 9 197 1.6 4.8 0.00 0.91 0.91 89 1011.4
20260505062703 9 269 3.2 9.7 0.00 0.91 0.91 88 1011.3
20260505061803 9 279 3.2 6.4 0.00 0.91 0.91 88 1011.3
20260505060903 9 303 3.2 11.3 0.00 0.91 0.91 88 1011.5
20260505060003 9 282 3.2 11.3 0.00 0.91 0.91 88 1011.5
20260505055403 9 283 3.2 9.7 0.00 0.91 0.91 88 1011.3
20260505054503 9 298 3.2 9.7 0.00 0.91 0.91 88 1011.3
20260505053824 9 303 3.2 4.8 0.00 0.91 0.91 89 1011.3
20260505052921 9 326 3.2 11.3 0.00 0.91 0.91 89 1011.2
20260505051804 9 309 3.2 6.4 0.00 0.91 0.91 90 1011.0
20260505050903 9 303 3.2 9.7 0.00 0.91 0.91 90 1010.9
20260505040904 9 298 3.2 11.3 0.00 0.94 0.91 91 1011.1
20260505040004 10 316 3.2 12.9 0.00 0.94 0.91 91 1011.1
20260505035403 10 315 3.2 6.4 0.00 0.94 0.91 91 1010.8
20260505034718 10 299 1.6 6.4 0.00 0.94 0.91 91 1010.7
20260505033820 10 256 1.6 6.4 0.00 0.94 0.91 91 1010.6
20260505032917 10 201 1.6 6.4 0.00 0.94 0.91 90 1010.7
20260505032020 10 170 1.6 6.4 0.00 0.94 0.91 91 1010.9
20260505031117 10 264 1.6 6.4 0.00 0.94 0.91 91 1011.1
20260505030008 10 307 1.6 9.7 0.00 0.94 0.91 92 1010.9
20260505025403 10 308 1.6 9.7 0.00 0.94 0.91 92 1011.2
20260505024718 10 303 3.2 9.7 0.03 0.94 0.91 92 1011.2